Tracking 30970 objects as of 3-Jul-2025
HD Live streaming from Space Station
objects crossing your sky now

STARLINK-6209

Track STARLINK-6209 now!
10-day predictions
STARLINK-6209 is classified as:


NORAD ID: 56877
Int'l Code: 2023-083B
Perigee: 565.2 km
Apogee: 567.2 km
Inclination: 43.0 °
Period: 95.8 minutes
Semi major axis: 6937 km
RCS: Unknown
Launch date: June 12, 2023
Source: United States (US)
Launch site: AIR FORCE EASTERN TEST RANGE (AFETR)
Your satellite tracking list
Your tracking list is empty




NASA's NSSDC Master Catalog

Two Line Element Set (TLE):
1 56877U 23083B   25183.84370641  .00000255  00000-0  33969-4 0  9997
2 56877  43.0049 359.6698 0001443 263.2182  96.8496 15.02546002114088
Source of the keplerian elements: AFSPC